Regional Weather Roundup
Issued by NWS

Home | Current Version | Previous Version | Graphics & Text | Print | Product List | Glossary On
Versions: 1 2 3 4 5 6 7 8 9 10 11 12 13 14 15 16 17 18 19 20 21 22 23 24 25 26 27 28 29 30 31 32 33 34 35 36 37 38 39 40 41 42 43 44 45 46 47 48 49 50
000
ASUS43 KLOT 282108
RWRIL

ILLINOIS REGIONAL WEATHER ROUNDUP
NATIONAL WEATHER SERVICE CHICAGO/ROMEOVILLE IL
400 PM CDT THU APR 28 2016

NOTE: "FAIR" INDICATES FEW OR NO CLOUDS BELOW 12,000 FEET WITH NO
SIGNIFICANT WEATHER AND/OR OBSTRUCTIONS TO VISIBILITY.

* THESE STATIONS ARE NOT UNDER NWS QUALITY CONTROL. THEY ALSO MAY NOT
  REPORT WEATHER SUCH AS PRECIPITATION OR FOG.

ILZ001-002-007-009-015-016-024-282200-
NORTHWEST ILLINOIS

CITY           SKY/WX    TMP DP  RH WIND       PRES   REMARKS
MOLINE         CLOUDY    55  49  80 CALM      29.89S HAZE
STERLING*      LGT RAIN  52  48  87 E8        29.90S
SAVANNA*       DRIZZLE   49  47  94 NE5       29.91S
$$

ILZ003-004-008-010-011-017-018-282200-
NORTH CENTRAL ILLINOIS

CITY           SKY/WX    TMP DP  RH WIND       PRES   REMARKS
ROCKFORD       CLOUDY    50  42  74 NE10      29.94R
FREEPORT*      CLOUDY    48  43  81 NE9       29.93S
ROCHELLE*      CLOUDY    52  46  80 NE7       29.91S
DE KALB*       CLOUDY    50  45  81 E8        29.92R
$$

ILZ005-006-012>014-019>023-282200-
NORTHEAST ILLINOIS

CITY           SKY/WX    TMP DP  RH WIND       PRES   REMARKS
CHICAGO-OHARE  CLOUDY    46  40  79 NE8       29.93R
CHICAGO-MIDWAY CLOUDY    50  42  74 E9        29.92R
AURORA         CLOUDY    53  46  77 E6        29.91R HAZE
LANSING*       CLOUDY    50  44  80 N8        29.91S
JOLIET*        CLOUDY    55  49  81 NE6       29.90S HAZE
WAUKEGAN       CLOUDY    41  39  93 NE8       29.95R
DUPAGE AIRPORT CLOUDY    51  42  71 NE9       29.90S
KANKAKEE*      CLOUDY    59  52  77 NE6       29.89R
WHEELING       CLOUDY    44  38  79 NE10      29.95R
MORRIS*        CLOUDY    53  49  85 CALM      29.89S FOG
ROMEOVILLE*    CLOUDY    52  45  77 NE8       29.90S HAZE
NORTHERLY ISL    N/A     45  40  82 N9          N/A
NORTHERLY ISL    N/A     45  40  82 N9          N/A
$$

LMZ740>746-282200-
SOUTHERN LAKE MICHIGAN

STATION/POSITION SKY/WX   TEMP    WIND        PRES    VSBY  WAVE
                          AIR SEA DIR/SP/G                  HT/PER
                          (F)     (DEG/KT/KT) (MB)    (MI)  (FT/S)
SOUTHERN BUOY              40 40   60/ 16/ 17 1013.9F         3/ 4
HARRISON CRIB              44      50/ 11/ 13   N/A
BURNHAM HARBOR             44     350/  9/ 12   N/A
CALUMET HARBOR             46      30/  9/ 13 1012.3R
BURNS HARBOR               47      30/ 11/ 14 1012.9R
MICHIGAN CITY              47      10/ 12/ 13   N/A
ST. JOSEPH                 51 48  120/  8/ 10   N/A           2/ 5
$$

ILZ025>027-034>036-040-047-049-050-058-095>099-282200-
WEST-CENTRAL ILLINOIS

CITY           SKY/WX    TMP DP  RH WIND       PRES   REMARKS
QUINCY         CLOUDY    60  48  64 W14G22    29.91S
GALESBURG*     CLOUDY    56  48  73 W10       29.90S
MACOMB*        CLOUDY    58  49  73 W12       29.92S
JACKSONVILLE*  MOSUNNY   63  50  61 W15G21    29.90S
PITTSFIELD*    PTSUNNY   62  48  60 W10G16    29.93S
$$

ILZ028>032-037-038-041>044-048-051>054-059>061-282200-
CENTRAL ILLINOIS

CITY           SKY/WX    TMP DP  RH WIND       PRES   REMARKS
PONTIAC        CLOUDY    60  55  84 N7        29.89S
BLOOMINGTON    PTSUNNY   62  56  81 NW10      29.88R
DECATUR        PTSUNNY   67  49  52 W14G21    29.88R
PEORIA         PTSUNNY   61  47  59 W17G25    29.90R
LACON*         CLOUDY    58  51  77 CALM      29.88R
LINCOLN*       PTSUNNY   66  50  54 W9G20     29.89R
SPRINGFIELD    PTSUNNY   67  52  58 W15       29.90R
TAYLORVILLE    PTSUNNY   64  52  63 W10G17    29.89F
$$

ILZ033-039-045-046-055>057-062-063-282200-
EAST-CENTRAL ILLINOIS

CITY           SKY/WX    TMP DP  RH WIND       PRES   REMARKS
CHAMPAIGN      PTSUNNY   68  52  56 W6        29.86R
RANTOUL*       PTSUNNY   66  56  70 CALM      29.86S
MATTOON        PTSUNNY   69  53  56 W15G24    29.87R
PARIS*         PTSUNNY   70  55  59 W13       29.86S
$$

ILZ079-100>102-282200-
SOUTHWEST ILLINOIS

CITY           SKY/WX    TMP DP  RH WIND       PRES   REMARKS
BELLEVILLE     SUNNY     73  51  45 W12       29.88S
CAHOKIA*       SUNNY     73  49  42 SW7       29.89S
SPARTA*        SUNNY     73  51  45 W9        29.91S
$$

ILZ064>066-069>071-074>076-080>082-084>086-088>090-092>094-282200-
SOUTH-CENTRAL ILLINOIS

CITY           SKY/WX    TMP DP  RH WIND       PRES   REMARKS
CARBONDALE     MOSUNNY   75  48  38 W10       29.89S
CAIRO*         SUNNY     77  49  37 SW9       29.90F
EFFINGHAM*     PTSUNNY   69  53  56 W12G23    29.90R
MARION         MOSUNNY   75  48  38 W9        29.90F
MT. VERNON     SUNNY     73  52  46 W9        29.90S
CENTRALIA*     MOSUNNY   73  55  54 W15       29.89S
SALEM*         MOSUNNY   72  53  50 W8        29.89S
METROPOLIS*    SUNNY     77  53  43 W9G16     29.91S
$$

ILZ067-068-072-073-078-083-087-091-282200-
SOUTHEAST ILLINOIS

CITY           SKY/WX    TMP DP  RH WIND       PRES   REMARKS
LAWRENCEVILLE  PTSUNNY   73  51  46 W12       29.87R
FLORA*         PTSUNNY   73  53  50 W13       29.89R
FAIRFIELD*     SUNNY     74  51  44 W7        29.87S
HARRISBURG*    SUNNY     76  50  39 W14       29.89S
ROBINSON*      MOSUNNY   73  53  50 W15       29.87S
CARMI*         MOSUNNY   75  54  47 W10G22    29.88R
$$

ABBREVIATIONS USED IN REMARKS
   TC - TEMPERATURE IN CELSIUS
  WCI - WIND CHILL INDEX
   HX - HEAT INDEX
  VSB - VISIBILITY
$$





USA.gov is the U.S. government's official web portal to all federal, state and local government web resources and services.